Location: Kapla
(46.2483°N, 15.0094°E)
Time: 07:27:32
(UTC+00:00)

CSL-04 Rocket - Pass Details

Date: 03 March 2021
Orbit: 805 x 861 km, 98.9° (Epoch: 18 April)

Event Time Altitude Azimuth Distance (km) Brightness Sun altitude
Rises 18:20:56 0° 172° (S) 3,423 6.7 -16.6°
Reaches altitude 10° 18:23:20 10° 175° (S) 2,490 6.0 -17.0°
Maximum altitude 18:28:50 66° 257° (WSW) 933 4.1 -18.0°
Drops below altitude 10° 18:34:20 10° 340° (NNW) 2,486 6.5 -18.9°
Sets 18:36:44 0° 344° (NNW) 3,419 7.2 -19.3°
